[[{"header":{"parameterUnit":"m.s-1","parameterCategory":1,"la1":30.2991,"la2":30.254,"lo1":-89.0895,"lo2":-89.0444,"dy":0.0017,"dx":0.0017,"nx":28,"ny":28,"refTime":"2025-02-09T09:00:00:Z","depth":0,"parameterNumber":2,"parameterNumberName":"U-component_of_WINDS"},"data":[0,0,0,0,0,0,0,0,0,0,0,0,0,0,0,0,0,0,0,0,0,0,0,0,0,0,0,0,0,0,0,0,0,0,0,0,0,0,0,0,0,0,0,0,0,0,0,0,0,0,0,0,0,0,0,0,0,0,-4.1046,-4.1047,0,-4.1102,-4.1103,-4.1103,-4.1056,-4.1054,-4.1052,-4.105,-4.1108,-4.1112,-4.1115,0,0,0,0,0,0,0,0,0,0,0,0,0,-4.09,-4.0903,-4.1046,-4.1047,-4.1047,-4.1102,-4.1103,-4.1103,-4.1057,-4.1054,-4.1052,-4.105,-4.1107,-4.1111,-4.1115,0,0,0,0,0,0,0,0,0,0,0,0,0,-4.0961,-4.0904,-4.1046,-4.103,-4.103,-4.1102,-4.1103,-4.1104,-4.1057,-4.1054,-4.1051,-4.1048,-4.1106,-4.1111,-4.1116,-4.1206,0,0,-4.1131,-4.1134,0,0,0,0,0,0,0,0,-4.0957,-4.0966,-4.1032,-4.1032,-4.1031,-4.1069,-4.1072,-4.1138,-4.1058,-4.1047,-4.105,-4.1047,-4.1098,-4.1103,-4.112,-4.1209,-4.1211,-4.1132,-4.1135,-4.1137,-4.1139,0,0,0,0,0,0,0,-4.0953,-4.0963,-4.1068,-4.1033,-4.1032,-4.1021,-4.1027,-4.1085,-4.1088,-4.1047,-4.1044,-4.1051,-4.1097,-4.1116,-4.1121,-4.1212,-4.1132,-4.1136,-4.1139,-4.1141,-4.1379,-4.1382,0,0,0,0,0,0,-4.095,-4.096,-4.1066,-4.107,-4.0986,-4.1026,-4.1032,-4.106,-4.1087,-4.1089,-4.1054,-4.1049,-4.1108,-4.1116,-4.1123,-4.1231,-4.1137,-4.1142,-4.1145,-4.1376,-4.138,-4.1384,0,0,0,0,0,0,-4.0947,-4.096,-4.1064,-4.1014,-4.1026,-4.1032,-4.1063,-4.1062,-4.1081,-4.1092,-4.1093,-4.1072,-4.1106,-4.1116,-4.1186,-4.1232,-4.1144,-4.1149,-4.1372,-4.1377,-4.1382,-4.1447,0,0,0,0,0,0,-4.0943,-4.0959,-4.0993,-4.1015,-4.1029,-4.1126,-4.1066,-4.1066,-4.109,-4.1084,-4.1109,-4.1111,-4.1105,-4.1179,-4.1191,-4.1238,-4.1153,-4.1368,-4.1374,-4.138,-4.1441,-4.1453,-4.1464,0,0,0,0,0,-4.0938,-4.1009,-4.0995,-4.1008,-4.1072,-4.1128,-4.1136,-4.1128,-4.1094,-4.1128,-4.1136,-4.111,-4.1226,-4.1186,-4.12,-4.1249,-4.1365,-4.1373,-4.138,-4.1435,-4.1451,-4.1464,0,0,0,0,0,0,-4.0992,-4.1012,-4.0996,-4.1076,-4.1101,-4.112,-4.1163,-4.1144,-4.1179,-4.1172,-4.1161,-4.1167,-4.1241,-4.1252,-4.1208,-4.1338,-4.129,-4.13,-4.1328,-4.1343,-4.1354,-4.1349,-4.1157,0,0,0,0,0,-4.1013,-4.1057,-4.1072,-4.1141,-4.1155,-4.1157,-4.1181,-4.1173,-4.1198,-4.1208,-4.1221,-4.1247,-4.1289,-4.1317,-4.1356,-4.1443,-4.1448,-4.1483,-4.1495,-4.1505,-4.1513,-4.1561,-4.1577,-4.1408,-4.1408,-4.1408,0,0,-4.1057,-4.1073,-4.1102,-4.1153,-4.1171,-4.1217,-4.1166,-4.1217,-4.1251,-4.1216,-4.1282,-4.1293,-4.1321,-4.1401,-4.1436,-4.1412,-4.1562,-4.1514,-4.1522,-4.1525,-4.157,-4.1586,-4.16,-4.1413,-4.1412,-4.1411,0,0,-4.116,-4.1177,-4.1237,-4.1257,-4.1285,-4.1286,-4.1301,-4.1324,-4.1329,-4.1397,-4.1371,-4.1413,-4.1486,-4.1507,-4.1527,-4.1642,-4.162,-4.1655,-4.1717,-4.1763,-4.1776,-4.1788,-4.1829,-4.1843,-4.1664,-4.1664,-4.1665,0,-4.1211,-4.1279,-4.127,-4.1323,-4.1346,-4.1318,-4.1378,-4.1398,-4.1438,-4.1455,-4.1429,-4.152,-4.1537,-4.1621,-4.1649,-4.1667,-4.1683,-4.1651,-4.1775,-4.1787,-4.1798,-4.1836,-4.1851,-4.1668,-4.1668,-4.1668,-4.1667,0,-4.134,-4.1388,-4.1433,-4.1473,-4.1502,-4.1559,-4.1559,-4.1589,-4.1579,-4.1584,-4.1653,-4.1673,-4.1716,-4.1736,-4.1727,-4.182,-4.1804,-4.1777,-4.1727,-4.1818,-4.1854,-4.1869,-4.1674,-4.1673,-4.1672,-4.1671,0,0,-4.1476,-4.1512,-4.1528,-4.1546,-4.1577,-4.1614,-4.167,-4.1713,-4.1739,-4.1769,-4.1816,-4.188,-4.1855,-4.1878,-4.1871,-4.1912,-4.2002,-4.188,-4.1881,-4.1901,-4.2106,-4.2125,-4.2142,-4.1989,-4.1992,-4.1994,-4.2103,0,-4.158,-4.1677,-4.1672,-4.1763,-4.1808,-4.1782,-4.1832,-4.1856,-4.1863,-4.1903,-4.191,-4.1955,-4.192,-4.1934,-4.1973,-4.1983,-4.2043,-4.1975,-4.2032,-4.2034,-4.2024,-4.2161,-4.2181,-4.2283,-4.2117,-4.212,-4.2121,0,-4.1713,-4.1748,-4.1844,-4.1869,-4.1887,-4.1932,-4.1971,-4.2009,-4.2037,-4.2039,-4.2067,-4.2054,-4.2112,-4.2063,-4.2143,-4.2097,-4.2121,-4.213,-4.2133,-4.2137,-4.2082,-4.2167,-4.2315,-4.233,-4.2143,-4.2142,-4.214,0,-4.1802,-4.1873,-4.1939,-4.1956,-4.1987,-4.2019,-4.2033,-4.2058,-4.2085,-4.212,-4.2137,-4.2179,-4.2201,-4.2234,-4.2233,-4.2198,-4.2314,-4.2266,-4.2318,-4.2318,-4.2341,-4.234,-4.2494,-4.236,-4.2359,-4.2359,-4.2359,0,-4.1918,-4.1977,-4.1979,-4.202,-4.2087,-4.2081,-4.2147,-4.2158,-4.2182,-4.2225,-4.2207,-4.2248,-4.2245,-4.2287,-4.2287,-4.2353,-4.2364,-4.2367,-4.2366,-4.2368,-4.2367,-4.2382,-4.2374,-4.2363,-4.2362,-4.2361,-4.2361,0,-4.2026,-4.203,-4.2101,-4.2126,-4.2134,-4.2181,-4.2203,-4.2242,-4.2248,-4.2303,-4.2316,-4.2326,-4.2374,-4.2377,-4.2434,-4.2434,-4.2514,-4.2506,-4.2504,-4.2502,-4.2554,-4.2549,-4.2722,-4.2744,-4.2596,-4.2598,-4.2599,0,-4.2099,-4.2144,-4.2174,-4.2202,-4.2218,-4.2263,-4.229,-4.2287,-4.2316,-4.2353,-4.2388,-4.2435,-4.2472,-4.2552,-4.2564,-4.2608,-4.26,-4.2658,-4.2606,-4.2607,-4.2599,-4.2596,-4.2601,-4.2667,-4.2669,-4.267,-4.2671,0,-4.2227,-4.2228,-4.2267,-4.2308,-4.2341,-4.2374,-4.2404,-4.2428,-4.2429,-4.2463,-4.2512,-4.2541,-4.2599,-4.2646,-4.2689,-4.2705,-4.2689,-4.2688,-4.2702,-4.2703,-4.27,-4.2702,-4.253,-4.2683,-4.2682,-4.2681,-4.268,-4.268,-4.2319,-4.2359,-4.2386,-4.2431,-4.2454,-4.2483,-4.2521,-4.2533,-4.2574,-4.2621,-4.2617,-4.2672,-4.2701,-4.2757,-4.2777,-4.282,-4.2801,-4.2821,-4.2826,-4.2831,-4.2836,-4.2695,-4.2828,-4.2828,-4.2828,-4.2827,-4.2827,0,-4.2446,-4.2463,-4.2505,-4.2548,-4.2584,-4.2566,-4.2599,-4.263,-4.2679,-4.2707,-4.2745,-4.2803,-4.2849,-4.2866,-4.2911,-4.2943,-4.2937,-4.2955,-4.2952,-4.2956,-4.2851,-4.2834,-4.2959,-4.2959,-4.2959,-4.2959,-4.2959,-4.2959,-4.2516,-4.2581,-4.2585,-4.2663,-4.2679,-4.2733,-4.2753,-4.2781,-4.2803,-4.2868,-4.2907,-4.2918,-4.2942,-4.299,-4.3032,-4.3036,-4.3053,-4.3074,-4.3075,-4.2976,-4.2963,-4.295,-4.2934,-4.3078,-4.3078,-4.3175,-4.3176,-4.3177]},{"header":{"parameterUnit":"m.s-1","parameterCategory":1,"la1":30.2991,"la2":30.254,"lo1":-89.0895,"lo2":-89.0444,"dy":0.0017,"dx":0.0017,"nx":28,"ny":28,"refTime":"2025-02-09T09:00:00:Z","depth":0,"parameterNumber":3,"parameterNumberName":"V-component_of_WINDS"},"data":[0,0,0,0,0,0,0,0,0,0,0,0,0,0,0,0,0,0,0,0,0,0,0,0,0,0,0,0,0,0,0,0,0,0,0,0,0,0,0,0,0,0,0,0,0,0,0,0,0,0,0,0,0,0,0,0,0,0,2.3858,2.3859,0,2.3966,2.3967,2.3968,2.4011,2.4011,2.4011,2.4011,2.4122,2.4125,2.4128,0,0,0,0,0,0,0,0,0,0,0,0,0,2.3693,2.3696,2.3858,2.3859,2.3861,2.3966,2.3967,2.3968,2.4011,2.4011,2.4011,2.401,2.412,2.4124,2.4128,0,0,0,0,0,0,0,0,0,0,0,0,0,2.3779,2.3697,2.3858,2.3895,2.3899,2.3965,2.3967,2.3969,2.4011,2.4011,2.4011,2.401,2.4119,2.4124,2.4129,2.4166,0,0,2.4143,2.4145,0,0,0,0,0,0,0,0,2.3774,2.3785,2.3888,2.3892,2.3897,2.3975,2.395,2.4035,2.4012,2.3969,2.4011,2.401,2.4073,2.4082,2.4103,2.4171,2.4176,2.4144,2.4147,2.4149,2.415,0,0,0,0,0,0,0,2.3768,2.3781,2.3901,2.3889,2.3895,2.3907,2.3919,2.3966,2.4022,2.3972,2.3976,2.3988,2.4076,2.4098,2.4106,2.4178,2.4144,2.4148,2.4151,2.4153,2.4287,2.4288,0,0,0,0,0,0,2.3756,2.3775,2.3897,2.3904,2.3833,2.391,2.3924,2.395,2.4021,2.4032,2.3988,2.399,2.409,2.41,2.411,2.4161,2.4149,2.4153,2.4156,2.4286,2.4287,2.4288,0,0,0,0,0,0,2.3752,2.3766,2.3893,2.3841,2.3858,2.3914,2.3943,2.3953,2.3975,2.4033,2.4044,2.4001,2.409,2.4103,2.4153,2.4165,2.4155,2.416,2.4286,2.4287,2.4288,2.4262,0,0,0,0,0,0,2.3747,2.3764,2.3778,2.3841,2.386,2.3933,2.3944,2.3955,2.3983,2.3986,2.4048,2.4058,2.4091,2.4145,2.4158,2.4172,2.4163,2.4285,2.4286,2.4287,2.4262,2.4262,2.4262,0,0,0,0,0,2.3741,2.3766,2.3778,2.3793,2.3878,2.3933,2.3945,2.3982,2.3984,2.3999,2.4037,2.4056,2.4162,2.415,2.4164,2.418,2.4284,2.4286,2.4287,2.4262,2.4262,2.4262,0,0,0,0,0,0,2.3702,2.3774,2.3789,2.3835,2.3878,2.394,2.396,2.398,2.4024,2.4024,2.4069,2.4083,2.413,2.416,2.4145,2.4222,2.4225,2.4229,2.4201,2.4201,2.4201,2.4193,2.4167,0,0,0,0,0,2.37,2.3737,2.3799,2.3833,2.3854,2.3904,2.3929,2.3954,2.4,2.4019,2.406,2.4105,2.4149,2.4177,2.422,2.4267,2.4283,2.4285,2.4285,2.4285,2.4288,2.4319,2.4321,2.4293,2.4293,2.4293,0,0,2.3693,2.3737,2.3758,2.3827,2.3863,2.3903,2.3918,2.3959,2.3989,2.4025,2.4075,2.4108,2.4161,2.421,2.4234,2.4236,2.43,2.4287,2.4286,2.429,2.4321,2.4323,2.4326,2.4294,2.4294,2.4294,0,0,2.3703,2.3739,2.3773,2.381,2.3865,2.3898,2.3907,2.3967,2.3991,2.4042,2.4071,2.4108,2.4182,2.422,2.4248,2.4277,2.4296,2.4289,2.429,2.4319,2.4321,2.4323,2.4336,2.4339,2.4293,2.4293,2.4293,0,2.3688,2.3748,2.3788,2.3828,2.3859,2.3894,2.3931,2.3964,2.4031,2.4051,2.4054,2.415,2.4188,2.4248,2.4255,2.4277,2.429,2.4282,2.4317,2.432,2.4323,2.4335,2.4339,2.4292,2.4292,2.4292,2.4292,0,2.3729,2.377,2.3792,2.3856,2.3889,2.3927,2.3974,2.4003,2.4027,2.4061,2.4114,2.4162,2.4217,2.4233,2.4256,2.4298,2.4299,2.4308,2.4312,2.4324,2.4336,2.4341,2.429,2.429,2.4291,2.4291,0,0,2.3714,2.3803,2.381,2.3842,2.3907,2.394,2.3982,2.4036,2.4061,2.4107,2.4144,2.4207,2.4218,2.4251,2.4279,2.4304,2.4327,2.4312,2.4314,2.4315,2.438,2.4372,2.4377,2.4341,2.4342,2.4343,2.4376,0,2.3734,2.3808,2.3847,2.3905,2.3946,2.3982,2.4018,2.4063,2.4097,2.4138,2.4175,2.4221,2.423,2.4251,2.4278,2.4318,2.4341,2.4317,2.4377,2.4379,2.4363,2.4383,2.4375,2.4403,2.4381,2.4382,2.4382,0,2.3765,2.3812,2.3874,2.3938,2.3957,2.3988,2.4043,2.4081,2.4134,2.4157,2.4196,2.4224,2.4271,2.4272,2.4338,2.4321,2.4349,2.4373,2.4375,2.4382,2.4381,2.4392,2.4413,2.4418,2.439,2.4389,2.4389,0,2.3751,2.3829,2.3877,2.3903,2.3978,2.4,2.4032,2.4085,2.4117,2.4166,2.4187,2.424,2.427,2.4311,2.4354,2.435,2.4418,2.4421,2.444,2.4439,2.4452,2.4451,2.4479,2.4468,2.4468,2.4468,2.4468,0,2.3768,2.3805,2.3872,2.3902,2.3946,2.3992,2.4035,2.407,2.4118,2.4157,2.4191,2.4227,2.4281,2.4325,2.4359,2.4411,2.4423,2.4445,2.4453,2.4442,2.4439,2.4461,2.446,2.4469,2.4469,2.4469,2.4469,0,2.3759,2.3805,2.3861,2.3928,2.3947,2.3976,2.4035,2.4067,2.4103,2.4153,2.4167,2.4225,2.4278,2.4325,2.4395,2.4419,2.4472,2.4482,2.4454,2.4459,2.4476,2.4474,2.452,2.4529,2.451,2.4511,2.4511,0,2.3767,2.3797,2.3869,2.3898,2.393,2.3975,2.4008,2.4056,2.4089,2.4155,2.4179,2.4235,2.4282,2.4366,2.4416,2.4471,2.4483,2.4495,2.4491,2.448,2.4486,2.4484,2.4488,2.4495,2.4495,2.4495,2.4495,0,2.3777,2.38,2.3846,2.3901,2.394,2.3986,2.4033,2.4055,2.4112,2.4148,2.4203,2.424,2.4314,2.437,2.4431,2.4466,2.4491,2.4496,2.4504,2.4493,2.4476,2.4487,2.4455,2.4495,2.4495,2.4495,2.4495,2.4495,2.3778,2.3808,2.3864,2.3916,2.3957,2.4,2.4034,2.4077,2.4124,2.4187,2.4213,2.427,2.4327,2.4411,2.4447,2.4494,2.4498,2.4508,2.4511,2.4513,2.4513,2.4468,2.4505,2.4505,2.4505,2.4505,2.4505,0,2.3792,2.3831,2.3878,2.3944,2.3985,2.4005,2.4059,2.4093,2.4143,2.4193,2.424,2.4306,2.4361,2.4416,2.4475,2.4503,2.4516,2.4517,2.4515,2.4524,2.4504,2.4493,2.4505,2.4505,2.4505,2.4505,2.4505,2.4505,2.3804,2.3856,2.3886,2.396,2.3999,2.4055,2.4085,2.4127,2.4168,2.424,2.4286,2.4322,2.4376,2.444,2.4493,2.4508,2.4529,2.4527,2.4545,2.4525,2.4525,2.4524,2.4514,2.4531,2.4531,2.4561,2.4561,2.4561]}]]